Total_Precipitation_Accumulation
2.71 3.02 3.64 3.18 2.62 2.47 2.53 2.46 2.31 2.17 2.04 2.02 1.94 1.82 1.65 1.45 1.34 1.30 1.22 1.14 1.06 1.05 1.05 1.10 1.12 1.08 1.20 1.38 1.48 1.52 1.55 1.64 1.86 2.16 2.34 2.32 2.43 2.59 2.81 2.99 2.82 2.11 2.02
2.16 2.61 3.17 2.88 2.36 2.24 2.21 2.28 2.18 2.06 2.06 2.00 1.97 1.84 1.72 1.59 1.41 1.29 1.16 1.07 1.05 1.05 0.96 0.98 1.04 1.00 1.06 1.21 1.36 1.40 1.53 1.82 2.32 2.78 2.99 2.72 2.74 2.84 2.91 2.86 2.72 2.16 1.97
1.70 1.96 2.30 2.45 2.22 2.06 1.94 2.06 2.06 1.96 1.90 1.84 1.79 1.71 1.69 1.57 1.32 1.14 1.07 1.08 1.12 1.09 0.95 0.99 1.01 0.95 1.05 1.22 1.33 1.34 1.57 2.03 2.73 3.50 3.66 2.95 2.59 2.88 2.93 2.76 2.43 1.99 1.78
1.39 1.72 1.78 2.10 2.03 1.91 1.84 1.93 1.86 1.77 1.67 1.74 1.65 1.55 1.53 1.51 1.28 1.03 0.97 1.01 1.02 0.98 0.97 1.02 1.03 1.03 1.04 1.13 1.24 1.47 1.79 2.08 2.72 3.28 3.23 2.41 2.03 2.32 2.54 2.20 1.96 1.77 1.54
1.30 1.56 1.84 1.98 1.81 1.74 1.65 1.70 1.65 1.60 1.59 1.68 1.58 1.49 1.40 1.33 1.19 1.01 0.93 0.95 0.96 0.96 0.93 0.98 1.08 1.10 1.08 1.11 1.26 1.57 1.94 2.29 2.72 2.89 2.36 2.54 2.43 2.19 2.06 1.88 1.77 1.52 1.30
1.09 1.20 1.55 1.71 1.60 1.61 1.52 1.45 1.54 1.56 1.59 1.63 1.55 1.41 1.42 1.36 1.28 1.07 0.93 0.92 0.97 1.01 1.02 1.04 1.16 1.18 1.08 1.09 1.26 1.61 1.96 2.39 2.51 1.89 1.53 1.91 1.91 1.88 1.84 1.78 1.62 1.42 1.29
1.03 1.09 1.32 1.59 1.50 1.45 1.40 1.36 1.46 1.52 1.53 1.49 1.48 1.29 1.34 1.34 1.23 1.05 0.96 0.93 0.89 0.96 1.06 1.10 1.15 1.15 1.12 1.18 1.30 1.59 2.01 2.33 2.10 1.49 1.31 1.59 1.52 1.57 1.74 1.77 1.70 1.46 1.26
1.01 1.03 1.26 1.56 1.51 1.43 1.40 1.41 1.52 1.57 1.44 1.37 1.36 1.22 1.18 1.20 1.15 1.07 1.03 1.01 0.91 0.95 1.09 1.13 1.12 1.07 1.12 1.25 1.43 1.59 2.00 1.98 1.52 1.35 1.26 1.32 1.14 1.43 1.64 1.60 1.50 1.36 1.21
1.34 1.29 1.34 1.38 1.41 1.45 1.61 1.68 1.70 1.63 1.42 1.35 1.36 1.24 1.12 1.07 1.07 1.04 1.10 1.09 1.03 1.06 1.14 1.21 1.19 1.17 1.21 1.32 1.46 1.66 2.03 2.13 1.75 1.61 1.32 1.26 1.09 1.44 1.72 1.53 1.34 1.26 1.26
2.13 1.95 1.70 1.54 1.62 1.51 1.58 1.79 1.88 1.60 1.39 1.34 1.39 1.32 1.23 1.27 1.28 1.32 1.26 1.23 1.30 1.40 1.44 1.49 1.42 1.37 1.44 1.52 1.68 1.86 2.10 1.95 1.71 1.90 1.69 1.28 1.21 1.58 1.82 1.83 1.61 1.40 1.31
2.61 2.40 2.11 1.89 1.72 1.73 1.72 1.78 2.04 1.81 1.57 1.64 1.82 1.79 1.85 2.16 2.03 2.08 1.67 1.62 1.76 1.93 2.01 2.05 2.00 1.88 1.78 1.72 1.95 2.15 2.00 1.88 2.11 2.26 1.94 1.40 1.49 1.97 2.13 2.20 2.00 1.79 1.66
2.63 2.34 2.21 2.17 1.85 1.81 1.91 2.28 2.70 2.31 2.13 2.20 2.44 2.36 2.68 2.74 2.59 1.94 1.93 2.22 2.40 2.72 2.85 2.88 2.91 2.56 2.21 2.03 2.26 2.28 2.01 2.13 2.38 2.08 1.74 1.47 1.67 2.14 2.43 2.47 2.25 1.99 1.92
2.51 2.39 2.16 2.43 2.16 2.21 2.53 2.61 2.77 2.80 2.65 2.64 2.69 2.67 2.93 2.65 2.33 2.21 2.55 2.92 3.16 3.29 3.44 3.48 3.40 2.86 2.83 3.04 2.99 2.71 2.58 2.47 2.48 2.20 1.77 1.69 1.89 2.27 2.59 2.64 2.42 2.22 2.08
2.44 2.40 2.44 2.58 2.64 2.80 2.81 2.71 2.58 2.35 2.32 2.47 2.63 2.59 2.75 2.85 2.86 2.81 3.01 3.14 3.39 3.74 4.09 3.99 4.00 3.68 3.63 3.40 3.15 3.15 2.95 2.58 2.74 2.83 2.30 2.00 2.15 2.57 2.80 2.79 2.62 2.48 2.47
3.03 2.92 3.01 3.20 3.16 3.09 3.07 2.82 2.40 2.22 2.07 2.12 2.25 2.36 2.30 2.63 2.93 2.95 2.83 2.90 2.86 3.09 3.50 4.08 4.00 4.16 4.08 3.67 3.21 3.07 3.12 2.93 2.85 2.82 2.40 2.38 2.61 2.70 2.79 2.82 2.81 2.76 2.76
3.97 3.80 3.67 3.79 3.39 3.16 3.07 2.82 2.59 2.27 2.25 2.14 2.06 1.99 2.16 2.41 2.72 2.69 2.68 2.91 2.93 2.86 3.01 3.49 3.62 4.02 3.98 3.62 3.06 2.83 2.80 2.84 2.66 2.64 2.50 2.47 2.57 2.45 2.53 2.89 3.21 3.33 3.21
5.09 4.71 4.15 3.91 3.61 3.39 3.23 2.89 2.56 2.39 2.20 2.30 2.27 2.08 2.11 2.22 2.44 2.44 2.55 2.59 2.63 2.51 2.60 2.82 3.01 3.28 3.25 3.11 3.00 2.82 2.69 2.61 2.42 2.48 2.55 2.47 2.22 2.33 2.48 2.70 3.01 3.24 3.42
5.87 5.33 4.62 3.90 3.96 3.87 3.64 3.04 2.60 2.41 2.34 2.31 2.20 2.01 1.87 1.99 1.97 2.08 2.13 2.13 2.15 1.98 2.08 2.45 2.52 2.77 2.95 2.98 3.07 2.81 2.59 2.67 2.47 2.47 2.44 2.49 2.54 2.22 2.52 2.64 2.77 2.89 3.25
5.99 5.84 5.24 5.09 4.87 4.23 3.56 3.00 2.61 2.40 2.36 2.15 2.08 2.00 1.87 1.76 1.84 1.98 2.10 2.15 1.84 1.82 1.90 1.76 2.22 2.48 2.69 2.72 2.33 2.45 2.23 2.29 2.25 1.98 2.06 2.02 2.26 2.31 2.49 2.42 2.58 2.64 3.00
4.97 4.88 4.84 4.99 4.57 3.96 3.36 2.94 2.69 2.45 2.18 2.02 1.95 2.00 1.94 1.86 1.92 2.23 2.02 1.90 1.71 1.96 2.19 2.25 2.57 2.51 2.41 2.44 2.04 2.14 1.99 1.83 1.90 1.82 1.74 1.81 1.89 1.81 2.19 2.42 2.48 2.19 2.53
3.48 3.58 3.89 4.10 3.85 3.40 3.02 2.57 2.42 2.36 2.14 1.96 1.87 1.73 1.87 1.84 2.08 2.37 2.14 2.37 2.04 2.02 2.13 2.17 2.37 2.30 2.08 2.01 2.43 2.53 2.00 1.57 1.60 1.53 1.52 1.72 1.69 1.76 2.12 2.42 2.58 2.56 2.35
2.70 2.99 3.32 3.54 3.37 2.83 2.61 2.45 2.36 2.30 2.13 2.11 2.04 2.03 1.82 1.81 2.02 2.06 2.38 2.17 2.16 2.23 2.26 2.33 2.45 2.40 2.14 2.08 2.49 2.88 2.51 2.41 2.11 1.42 1.50 1.62 1.63 1.88 1.95 1.95 2.22 2.61 2.47
2.52 2.73 2.63 2.85 3.01 2.74 2.62 2.54 2.46 2.42 2.22 2.28 2.23 2.14 1.78 1.66 1.70 1.88 2.03 2.04 2.25 2.03 2.34 2.56 2.49 2.55 2.52 2.31 2.35 2.77 2.81 2.71 2.25 1.76 1.43 1.44 1.63 1.97 1.99 2.01 1.92 2.19 2.45
1.82 2.10 2.40 2.68 2.79 2.70 2.56 2.33 2.20 2.02 1.94 1.94 1.95 1.99 1.84 1.74 1.66 1.76 1.88 2.14 2.30 2.05 2.50 2.14 2.25 2.47 2.63 2.42 2.33 2.18 2.27 2.50 2.59 2.38 1.92 1.53 1.53 1.71 1.90 1.78 1.78 2.08 2.38
1.30 1.68 2.19 2.60 2.82 2.67 2.38 2.21 2.25 2.08 2.02 1.95 1.87 2.11 1.98 1.85 1.71 1.60 1.85 2.10 2.24 2.14 2.27 2.31 2.57 2.43 2.37 2.35 2.38 2.41 2.48 2.44 2.25 2.42 2.36 2.07 1.81 1.42 1.35 1.48 1.64 1.83 2.07
1.10 1.34 1.74 2.10 2.33 2.36 2.23 2.14 2.21 2.25 2.22 2.07 1.90 1.89 1.75 1.74 1.68 1.62 1.84 2.11 2.07 2.11 2.29 2.28 2.39 2.35 2.41 2.50 2.34 2.25 2.44 2.41 2.35 2.44 2.17 1.98 1.92 1.41 1.23 1.25 1.38 1.69 1.89